When you browse on this site, cookies collect data to enhance your experience and personalize the content and advertising you see.
Visit our Privacy Policy to learn more. By continuing to use the site, you agree to this use of cookies and data.
  • In Schweiz
  • Länderverzeichnis
  • Für 7 Tage
  • Wassertemperatur
  • Wetterkarte
  • Widgets
  • user-avatar
    Anmelden

    Stündliche Wetter Chelmsford

    Heute, 10 Dezember, Dienstag

    Zeit Temperatur Niederschläge Wind Luftdruck Luftfeuchtigkeit
    00:00 +2°C° 0 mm 2 m/S 765 mmHg 82%
    01:00 +1°C° 0 mm 3 m/S 765 mmHg 83%
    02:00 +2°C° 0 mm 3 m/S 764 mmHg 84%
    03:00 +1°C° 0 mm 4 m/S 764 mmHg 85%
    04:00 +1°C° 0 mm 4 m/S 764 mmHg 85%
    05:00 +1°C° 0 mm 4 m/S 763 mmHg 84%
    06:00 +2°C° 0 mm 5 m/S 763 mmHg 83%
    07:00 +2°C° 0 mm 6 m/S 762 mmHg 83%
    08:00 +3°C° 0 mm 7 m/S 761 mmHg 83%
    09:00 +4°C° 0 mm 7 m/S 760 mmHg 84%
    10:00 +5°C° 0.1 mm 8 m/S 759 mmHg 83%
    11:00 +5°C° 0.1 mm 9 m/S 758 mmHg 83%
    12:00 +6°C° 0.1 mm 10 m/S 757 mmHg 83%
    13:00 +6°C° 0.4 mm 11 m/S 756 mmHg 85%
    14:00 +6°C° 0.4 mm 11 m/S 754 mmHg 86%
    15:00 +7°C° 0.4 mm 11 m/S 752 mmHg 87%
    16:00 +7°C° 0.2 mm 11 m/S 751 mmHg 87%
    17:00 +8°C° 0.2 mm 11 m/S 750 mmHg 87%
    18:00 +9°C° 0.2 mm 11 m/S 749 mmHg 86%
    19:00 +8°C° 1.1 mm 11 m/S 749 mmHg 87%
    20:00 +8°C° 1.1 mm 10 m/S 749 mmHg 87%
    21:00 +8°C° 1.1 mm 9 m/S 749 mmHg 88%
    22:00 +7°C° 1 mm 8 m/S 750 mmHg 85%
    23:00 +7°C° 1 mm 6 m/S 751 mmHg 83%

    Morgen, 11 Dezember, Mittwoch

    Zeit Temperatur Niederschläge Wind Luftdruck Luftfeuchtigkeit
    00:00 +6°C° 1 mm 5 m/S 751 mmHg 80%
    01:00 +5°C° 0 mm 4 m/S 751 mmHg 80%
    02:00 +5°C° 0 mm 4 m/S 751 mmHg 81%
    03:00 +4°C° 0 mm 4 m/S 752 mmHg 82%
    04:00 +4°C° 0 mm 4 m/S 751 mmHg 83%
    05:00 +3°C° 0 mm 4 m/S 751 mmHg 85%
    06:00 +3°C° 0 mm 3 m/S 751 mmHg 86%
    07:00 +3°C° 0 mm 4 m/S 751 mmHg 85%
    08:00 +3°C° 0 mm 4 m/S 751 mmHg 85%
    09:00 +3°C° 0 mm 4 m/S 751 mmHg 84%
    10:00 +4°C° 0 mm 4 m/S 750 mmHg 81%
    11:00 +5°C° 0 mm 4 m/S 750 mmHg 77%
    12:00 +6°C° 0 mm 5 m/S 750 mmHg 74%
    13:00 +6°C° 0 mm 4 m/S 749 mmHg 75%
    14:00 +5°C° 0 mm 4 m/S 748 mmHg 76%
    15:00 +5°C° 0 mm 4 m/S 747 mmHg 78%
    16:00 +5°C° 0.1 mm 5 m/S 747 mmHg 79%
    17:00 +3°C° 0.1 mm 6 m/S 748 mmHg 81%
    18:00 +2°C° 0.1 mm 7 m/S 748 mmHg 83%
    19:00 +2°C° 0 mm 6 m/S 748 mmHg 83%
    20:00 +2°C° 0 mm 6 m/S 748 mmHg 84%
    21:00 +1°C° 0 mm 5 m/S 749 mmHg 84%
    22:00 +1°C° 0 mm 5 m/S 749 mmHg 84%
    23:00 +1°C° 0 mm 5 m/S 749 mmHg 84%

    übermorgen, 12 Dezember, Donnerstag

    Zeit Temperatur Niederschläge Wind Luftdruck Luftfeuchtigkeit
    00:00 0°C° 0 mm 5 m/S 750 mmHg 84%
    01:00 0°C° 0 mm 5 m/S 750 mmHg 84%
    02:00 0°C° 0 mm 4 m/S 750 mmHg 84%
    03:00 0°C° 0 mm 4 m/S 750 mmHg 85%
    04:00 0°C° 0 mm 4 m/S 749 mmHg 84%
    05:00 0°C° 0 mm 4 m/S 749 mmHg 84%
    06:00 0°C° 0 mm 4 m/S 749 mmHg 84%
    07:00 0°C° 0 mm 4 m/S 748 mmHg 82%
    08:00 +1°C° 0 mm 5 m/S 747 mmHg 79%
    09:00 +1°C° 0 mm 5 m/S 746 mmHg 77%
    10:00 +2°C° 0.1 mm 7 m/S 745 mmHg 79%
    11:00 +4°C° 0.1 mm 8 m/S 743 mmHg 82%
    12:00 +5°C° 0.1 mm 10 m/S 741 mmHg 85%
    13:00 +4°C° 1.5 mm 11 m/S 738 mmHg 86%
    14:00 +5°C° 1.5 mm 12 m/S 735 mmHg 88%
    15:00 +5°C° 1.5 mm 13 m/S 733 mmHg 90%
    16:00 +7°C° 2.6 mm 12 m/S 731 mmHg 89%
    17:00 +7°C° 2.6 mm 11 m/S 729 mmHg 88%
    18:00 +8°C° 2.6 mm 9 m/S 727 mmHg 87%
    19:00 +6°C° 0.2 mm 9 m/S 727 mmHg 81%
    20:00 +5°C° 0.2 mm 9 m/S 726 mmHg 76%
    21:00 +2°C° 0.2 mm 9 m/S 726 mmHg 70%
    22:00 +2°C° 0.1 mm 9 m/S 726 mmHg 71%
    23:00 +1°C° 0.1 mm 9 m/S 726 mmHg 72%

    13 Dezember, Freitag

    Zeit Temperatur Niederschläge Wind Luftdruck Luftfeuchtigkeit
    00:00 +1°C° 0.1 mm 8 m/S 726 mmHg 74%
    01:00 +1°C° 0.2 mm 8 m/S 725 mmHg 74%
    02:00 +1°C° 0.2 mm 8 m/S 724 mmHg 73%
    03:00 +1°C° 0.2 mm 8 m/S 724 mmHg 73%
    04:00 +1°C° 0.7 mm 8 m/S 723 mmHg 80%
    05:00 +1°C° 0.7 mm 8 m/S 723 mmHg 86%
    06:00 +1°C° 0.7 mm 8 m/S 722 mmHg 92%
    07:00 +2°C° 0.2 mm 9 m/S 722 mmHg 89%
    08:00 +3°C° 0.2 mm 9 m/S 723 mmHg 86%
    09:00 +3°C° 0.2 mm 9 m/S 723 mmHg 83%
    10:00 +5°C° 0 mm 10 m/S 724 mmHg 81%
    11:00 +4°C° 0 mm 11 m/S 725 mmHg 79%
    12:00 +6°C° 0 mm 11 m/S 726 mmHg 77%
    13:00 +4°C° 0.1 mm 11 m/S 727 mmHg 73%
    14:00 +4°C° 0.1 mm 12 m/S 728 mmHg 70%
    15:00 +4°C° 0.1 mm 12 m/S 729 mmHg 67%
    16:00 +3°C° 0 mm 12 m/S 729 mmHg 69%
    17:00 +3°C° 0 mm 11 m/S 730 mmHg 71%
    18:00 +2°C° 0 mm 11 m/S 731 mmHg 73%
    19:00 +2°C° 0 mm 10 m/S 731 mmHg 74%
    20:00 +2°C° 0 mm 10 m/S 732 mmHg 75%
    21:00 +2°C° 0 mm 9 m/S 732 mmHg 77%
    22:00 +2°C° 0 mm 9 m/S 732 mmHg 76%
    23:00 +2°C° 0 mm 9 m/S 733 mmHg 75%

    14 Dezember, Samstag

    Zeit Temperatur Niederschläge Wind Luftdruck Luftfeuchtigkeit
    00:00 +1°C° 0 mm 9 m/S 733 mmHg 75%
    01:00 +1°C° 0 mm 8 m/S 734 mmHg 75%
    02:00 +1°C° 0 mm 8 m/S 734 mmHg 75%
    03:00 +1°C° 0 mm 8 m/S 734 mmHg 75%
    04:00 +1°C° 0 mm 8 m/S 734 mmHg 75%
    05:00 +2°C° 0 mm 7 m/S 735 mmHg 75%
    06:00 0°C° 0 mm 7 m/S 735 mmHg 76%
    07:00 0°C° 0 mm 7 m/S 736 mmHg 76%
    08:00 +2°C° 0 mm 7 m/S 736 mmHg 76%
    09:00 +2°C° 0 mm 7 m/S 736 mmHg 76%
    10:00 +2°C° 0.1 mm 7 m/S 737 mmHg 77%
    11:00 +3°C° 0.1 mm 7 m/S 737 mmHg 78%
    12:00 +2°C° 0.1 mm 8 m/S 737 mmHg 78%
    13:00 +2°C° 0.1 mm 8 m/S 738 mmHg 74%
    14:00 +2°C° 0.1 mm 9 m/S 739 mmHg 69%
    15:00 +3°C° 0.1 mm 9 m/S 739 mmHg 65%
    16:00 +2°C° 0 mm 8 m/S 740 mmHg 65%
    17:00 +2°C° 0 mm 7 m/S 740 mmHg 65%
    18:00 +1°C° 0 mm 6 m/S 741 mmHg 65%
    19:00 +1°C° 0 mm 5 m/S 741 mmHg 68%
    20:00 +1°C° 0 mm 4 m/S 741 mmHg 70%
    21:00 +1°C° 0 mm 4 m/S 740 mmHg 72%
    22:00 +3°C° 2.3 mm 4 m/S 740 mmHg 80%
    23:00 +2°C° 2.3 mm 5 m/S 739 mmHg 88%

    15 Dezember, Sonntag

    Zeit Temperatur Niederschläge Wind Luftdruck Luftfeuchtigkeit
    00:00 +3°C° 2.3 mm 5 m/S 738 mmHg 95%
    01:00 +1°C° 0 mm 4 m/S 739 mmHg 91%
    02:00 0°C° 0 mm 4 m/S 739 mmHg 86%
    03:00 0°C° 0 mm 3 m/S 740 mmHg 82%
    04:00 -1°C° 0 mm 4 m/S 741 mmHg 82%
    05:00 0°C° 0 mm 5 m/S 741 mmHg 83%
    06:00 0°C° 0 mm 5 m/S 742 mmHg 84%
    07:00 +1°C° 0 mm 6 m/S 742 mmHg 81%
    08:00 +1°C° 0 mm 6 m/S 743 mmHg 79%
    09:00 0°C° 0 mm 7 m/S 743 mmHg 76%
    10:00 +2°C° 0 mm 7 m/S 744 mmHg 74%
    11:00 +3°C° 0 mm 7 m/S 744 mmHg 72%
    12:00 +5°C° 0 mm 7 m/S 744 mmHg 71%
    13:00 +4°C° 0 mm 7 m/S 744 mmHg 72%
    14:00 +4°C° 0 mm 6 m/S 744 mmHg 74%
    15:00 +4°C° 0 mm 6 m/S 744 mmHg 76%
    16:00 +4°C° 0 mm 6 m/S 744 mmHg 76%
    17:00 +3°C° 0 mm 6 m/S 744 mmHg 77%
    18:00 +3°C° 0 mm 6 m/S 744 mmHg 78%
    19:00 +3°C° 0 mm 6 m/S 744 mmHg 79%
    20:00 +4°C° 0 mm 6 m/S 744 mmHg 79%
    21:00 +4°C° 0 mm 6 m/S 744 mmHg 80%
    22:00 +4°C° 0.2 mm 6 m/S 744 mmHg 81%
    23:00 +4°C° 0.2 mm 6 m/S 744 mmHg 82%
    Mehr zeigen